Location: Saint-Palais-sur-Mer
(45.6429°N, 1.0859°W)
Time: 19:49:12
(UTC+02:00)

CUBEBUG 2 - Pass Details

Date: 04 May 2024
Orbit: 570 x 669 km, 97.8° (Epoch: 19 May)

Event Time Altitude Azimuth Distance (km) Brightness Sun altitude
Rises 03:47:49 0° 19° (NNE) 2,833 ? -23.7°
Reaches altitude 10° 03:50:04 10° 27° (NNE) 1,941 ? -23.5°
Maximum altitude 03:54:04 41° 98° (E) 884 ? -23.2°
Enters shadow 03:54:54 37° 128° (SE) 957 ? -23.1°
